contact:dominique.lefevre@mio.osupytheas.fr, maurice.libes@osupytheas.fr, didier.mallarino@osupytheas.fr
Project:EMSO http://www.emso-fr.org/EMSO-France
Depth: 2436.0 m
Title:EMSO Ligure Ouest : Data MII capteur CSTAR
DateTime,Latitude,Longitude,Instrument_Serial,Reference_Counts,Signal_Counts,Corrected_Signal_raw_counts,Calculated_Beam_c_inverse_meters,Internal_thermistor_counts
DateTime,Latitude,Longitude,Instrument_Serial,Reference_Counts,Signal_Counts,Corrected_Signal_raw_counts,Calculated_Beam_c_inverse_meters,Internal_thermistor_counts
2019-09-24T00:02:40,42.805,6.029,CST-1368DR,7904,11065,15375,0.062,551
2019-09-24T00:05:42,42.805,6.029,CST-1368DR,7904,11069,15380,0.061,551
2019-09-24T00:08:44,42.805,6.029,CST-1368DR,7904,11068,15379,0.061,551
2019-09-24T00:11:46,42.805,6.029,CST-1368DR,7904,11069,15381,0.061,551
2019-09-24T00:14:48,42.805,6.029,CST-1368DR,7904,11069,15380,0.061,551
2019-09-24T00:17:49,42.805,6.029,CST-1368DR,7904,11069,15380,0.061,551
2019-09-24T00:20:51,42.805,6.029,CST-1368DR,7904,11068,15379,0.061,551
2019-09-24T00:23:53,42.805,6.029,CST-1368DR,7904,11068,15379,0.061,551
2019-09-24T00:26:54,42.805,6.029,CST-1368DR,7904,11066,15377,0.062,551
2019-09-24T00:29:56,42.805,6.029,CST-1368DR,7904,11069,15380,0.061,551
2019-09-24T00:32:58,42.805,6.029,CST-1368DR,7904,11067,15377,0.062,551
2019-09-24T00:35:59,42.805,6.029,CST-1368DR,7904,11068,15379,0.061,551
2019-09-24T00:39:01,42.805,6.029,CST-1368DR,7904,11067,15378,0.061,551
2019-09-24T00:42:03,42.805,6.029,CST-1368DR,7904,11068,15379,0.061,551
2019-09-24T00:45:04,42.805,6.029,CST-1368DR,7904,11069,15381,0.061,551
2019-09-24T00:48:06,42.805,6.029,CST-1368DR,7904,11069,15380,0.061,550
2019-09-24T00:51:08,42.805,6.029,CST-1368DR,7904,11068,15379,0.061,551
2019-09-24T00:54:09,42.805,6.029,CST-1368DR,7904,11069,15380,0.061,551
2019-09-24T00:57:11,42.805,6.029,CST-1368DR,7904,11067,15378,0.061,551
2019-09-24T01:00:12,42.805,6.029,CST-1368DR,7904,11068,15380,0.061,551
2019-09-24T01:03:14,42.805,6.029,CST-1368DR,7904,11068,15379,0.061,551
2019-09-24T01:06:16,42.805,6.029,CST-1368DR,7904,11067,15378,0.061,551
2019-09-24T01:09:17,42.805,6.029,CST-1368DR,7904,11068,15380,0.061,551
2019-09-24T01:12:19,42.805,6.029,CST-1368DR,7904,11068,15379,0.061,551
2019-09-24T01:15:21,42.805,6.029,CST-1368DR,7904,11068,15379,0.061,551
2019-09-24T01:18:22,42.805,6.029,CST-1368DR,7904,11068,15379,0.061,551
2019-09-24T01:21:24,42.805,6.029,CST-1368DR,7904,11068,15380,0.061,551
2019-09-24T01:24:26,42.805,6.029,CST-1368DR,7903,11067,15379,0.061,551
2019-09-24T01:27:27,42.805,6.029,CST-1368DR,7903,11068,15380,0.061,551
2019-09-24T01:30:29,42.805,6.029,CST-1368DR,7903,11063,15374,0.062,551
2019-09-24T01:33:31,42.805,6.029,CST-1368DR,7903,11041,15343,0.071,551
2019-09-24T01:36:32,42.805,6.029,CST-1368DR,7903,11067,15380,0.061,551
2019-09-24T01:39:34,42.805,6.029,CST-1368DR,7903,11066,15378,0.061,551
2019-09-24T01:42:36,42.805,6.029,CST-1368DR,7903,11067,15379,0.061,551
2019-09-24T01:45:37,42.805,6.029,CST-1368DR,7903,11067,15380,0.061,551
2019-09-24T01:48:39,42.805,6.029,CST-1368DR,7903,11068,15380,0.061,551
2019-09-24T01:51:41,42.805,6.029,CST-1368DR,7903,11067,15380,0.061,551
2019-09-24T01:54:42,42.805,6.029,CST-1368DR,7903,11060,15370,0.064,550
2019-09-24T01:57:44,42.805,6.029,CST-1368DR,7903,11067,15380,0.061,550
2019-09-24T02:00:46,42.805,6.029,CST-1368DR,7903,11065,15376,0.062,551
2019-09-24T02:03:47,42.805,6.029,CST-1368DR,7903,11066,15379,0.061,550
2019-09-24T02:06:49,42.805,6.029,CST-1368DR,7903,11066,15378,0.061,550
2019-09-24T02:09:51,42.805,6.029,CST-1368DR,7903,11068,15380,0.061,551
2019-09-24T02:12:53,42.805,6.029,CST-1368DR,7903,11068,15381,0.061,550
2019-09-24T02:15:54,42.805,6.029,CST-1368DR,7903,11068,15381,0.061,551
2019-09-24T02:18:56,42.805,6.029,CST-1368DR,7903,11068,15381,0.061,550
2019-09-24T02:21:58,42.805,6.029,CST-1368DR,7903,11065,15377,0.062,551
2019-09-24T02:24:59,42.805,6.029,CST-1368DR,7903,11066,15379,0.061,551
2019-09-24T02:28:01,42.805,6.029,CST-1368DR,7903,11064,15375,0.062,551
2019-09-24T02:31:03,42.805,6.029,CST-1368DR,7903,11064,15375,0.062,551
2019-09-24T02:34:04,42.805,6.029,CST-1368DR,7903,11066,15378,0.061,551
2019-09-24T02:37:06,42.805,6.029,CST-1368DR,7903,11067,15379,0.061,551
2019-09-24T02:40:08,42.805,6.029,CST-1368DR,7903,11067,15380,0.061,551
2019-09-24T02:43:09,42.805,6.029,CST-1368DR,7903,11067,15379,0.061,551
2019-09-24T02:46:11,42.805,6.029,CST-1368DR,7903,11067,15380,0.061,551
2019-09-24T02:49:13,42.805,6.029,CST-1368DR,7903,11065,15376,0.062,551
2019-09-24T02:52:14,42.805,6.029,CST-1368DR,7903,11065,15377,0.062,551
2019-09-24T02:55:16,42.805,6.029,CST-1368DR,7903,11061,15371,0.063,550
2019-09-24T02:58:17,42.805,6.029,CST-1368DR,7903,11069,15382,0.060,551
2019-09-24T03:01:19,42.805,6.029,CST-1368DR,7903,11065,15376,0.062,551
2019-09-24T03:04:21,42.805,6.029,CST-1368DR,7903,11067,15380,0.061,551
2019-09-24T03:07:22,42.805,6.029,CST-1368DR,7903,11065,15376,0.062,551
2019-09-24T03:10:24,42.805,6.029,CST-1368DR,7903,11065,15377,0.062,551
2019-09-24T03:13:26,42.805,6.029,CST-1368DR,7903,11065,15377,0.062,551
2019-09-24T03:16:28,42.805,6.029,CST-1368DR,7903,11067,15379,0.061,551
2019-09-24T03:19:29,42.805,6.029,CST-1368DR,7903,11065,15376,0.062,551
2019-09-24T03:22:31,42.805,6.029,CST-1368DR,7902,11067,15382,0.060,551
2019-09-24T03:25:33,42.805,6.029,CST-1368DR,7902,11063,15376,0.062,551
2019-09-24T03:28:34,42.805,6.029,CST-1368DR,7902,11066,15380,0.061,551
2019-09-24T03:31:36,42.805,6.029,CST-1368DR,7902,11066,15380,0.061,551
2019-09-24T03:34:38,42.805,6.029,CST-1368DR,7902,11067,15381,0.061,551
2019-09-24T03:37:40,42.805,6.029,CST-1368DR,7902,11066,15380,0.061,551
2019-09-24T03:40:41,42.805,6.029,CST-1368DR,7902,11063,15376,0.062,551
2019-09-24T03:43:43,42.805,6.029,CST-1368DR,7902,11067,15381,0.061,551
2019-09-24T03:46:44,42.805,6.029,CST-1368DR,7902,11066,15379,0.061,551
2019-09-24T03:49:46,42.805,6.029,CST-1368DR,7902,11068,15382,0.060,551
2019-09-24T03:52:48,42.805,6.029,CST-1368DR,7902,11067,15381,0.061,551
2019-09-24T03:55:49,42.805,6.029,CST-1368DR,7902,11067,15381,0.061,551
2019-09-24T03:58:51,42.805,6.029,CST-1368DR,7902,11067,15381,0.061,551
2019-09-24T04:01:53,42.805,6.029,CST-1368DR,7902,11067,15381,0.061,551
2019-09-24T04:04:54,42.805,6.029,CST-1368DR,7902,11067,15381,0.061,551
2019-09-24T04:07:56,42.805,6.029,CST-1368DR,7902,11066,15380,0.061,551
2019-09-24T04:10:58,42.805,6.029,CST-1368DR,7902,11063,15376,0.062,550
2019-09-24T04:13:59,42.805,6.029,CST-1368DR,7902,11067,15381,0.061,551
2019-09-24T04:17:01,42.805,6.029,CST-1368DR,7902,11067,15381,0.061,551
2019-09-24T04:20:02,42.805,6.029,CST-1368DR,7902,11063,15376,0.062,551
2019-09-24T04:23:04,42.805,6.029,CST-1368DR,7902,11065,15379,0.061,551
2019-09-24T04:26:06,42.805,6.029,CST-1368DR,7902,11067,15382,0.060,550
2019-09-24T04:29:07,42.805,6.029,CST-1368DR,7902,11067,15381,0.061,551
2019-09-24T04:32:09,42.805,6.029,CST-1368DR,7902,11066,15380,0.061,551
2019-09-24T04:35:11,42.805,6.029,CST-1368DR,7902,11067,15381,0.061,551
2019-09-24T04:38:12,42.805,6.029,CST-1368DR,7902,11066,15380,0.061,551
2019-09-24T04:41:14,42.805,6.029,CST-1368DR,7902,11066,15380,0.061,551
2019-09-24T04:44:16,42.805,6.029,CST-1368DR,7902,11068,15383,0.060,551
2019-09-24T04:47:17,42.805,6.029,CST-1368DR,7902,11067,15381,0.061,551
2019-09-24T04:50:19,42.805,6.029,CST-1368DR,7902,11061,15373,0.063,551
2019-09-24T04:53:20,42.805,6.029,CST-1368DR,7902,11063,15376,0.062,550
2019-09-24T04:56:22,42.805,6.029,CST-1368DR,7902,11066,15380,0.061,551
2019-09-24T04:59:24,42.805,6.029,CST-1368DR,7901,11066,15382,0.060,551
2019-09-24T05:02:25,42.805,6.029,CST-1368DR,7901,11064,15379,0.061,551
2019-09-24T05:05:27,42.805,6.029,CST-1368DR,7901,11066,15381,0.061,551
2019-09-24T05:08:29,42.805,6.029,CST-1368DR,7901,11066,15382,0.060,551
2019-09-24T05:11:30,42.805,6.029,CST-1368DR,7901,11066,15381,0.061,551
2019-09-24T05:14:32,42.805,6.029,CST-1368DR,7902,11067,15381,0.061,550
2019-09-24T05:17:34,42.805,6.029,CST-1368DR,7901,11067,15383,0.060,551
2019-09-24T05:20:35,42.805,6.029,CST-1368DR,7901,11067,15383,0.060,551
2019-09-24T05:23:37,42.805,6.029,CST-1368DR,7901,11064,15379,0.061,551
2019-09-24T05:26:39,42.805,6.029,CST-1368DR,7901,11065,15380,0.061,550
2019-09-24T05:29:40,42.805,6.029,CST-1368DR,7901,11067,15383,0.060,551
2019-09-24T05:32:42,42.805,6.029,CST-1368DR,7901,11065,15380,0.061,551
2019-09-24T05:35:43,42.805,6.029,CST-1368DR,7901,11066,15382,0.060,551
2019-09-24T05:38:45,42.805,6.029,CST-1368DR,7901,11061,15374,0.062,551
2019-09-24T05:41:47,42.805,6.029,CST-1368DR,7901,11066,15381,0.061,551
2019-09-24T05:44:48,42.805,6.029,CST-1368DR,7901,11066,15381,0.061,551
2019-09-24T05:47:50,42.805,6.029,CST-1368DR,7901,11064,15379,0.061,551
2019-09-24T05:50:52,42.805,6.029,CST-1368DR,7901,11064,15379,0.061,551
2019-09-24T05:53:53,42.805,6.029,CST-1368DR,7901,11064,15379,0.061,551
2019-09-24T05:56:55,42.805,6.029,CST-1368DR,7901,11066,15381,0.061,551
2019-09-24T05:59:57,42.805,6.029,CST-1368DR,7901,11063,15378,0.061,551
2019-09-24T06:02:58,42.805,6.029,CST-1368DR,7901,11060,15373,0.063,551
2019-09-24T06:06:00,42.805,6.029,CST-1368DR,7901,11064,15379,0.061,551
2019-09-24T06:09:02,42.805,6.029,CST-1368DR,7901,11065,15380,0.061,549
2019-09-24T06:12:03,42.805,6.029,CST-1368DR,7901,11066,15381,0.061,551
2019-09-24T06:15:05,42.805,6.029,CST-1368DR,7901,11064,15379,0.061,551
2019-09-24T06:18:06,42.805,6.029,CST-1368DR,7901,11065,15380,0.061,551
2019-09-24T06:21:08,42.805,6.029,CST-1368DR,7901,11065,15380,0.061,551
2019-09-24T06:24:10,42.805,6.029,CST-1368DR,7901,11063,15378,0.061,551
2019-09-24T06:27:11,42.805,6.029,CST-1368DR,7901,11064,15379,0.061,551
2019-09-24T06:30:13,42.805,6.029,CST-1368DR,7901,11065,15380,0.061,550
2019-09-24T06:33:15,42.805,6.029,CST-1368DR,7901,11064,15379,0.061,551
2019-09-24T06:36:16,42.805,6.029,CST-1368DR,7901,11064,15379,0.061,551
2019-09-24T06:39:18,42.805,6.029,CST-1368DR,7900,11064,15381,0.061,551
2019-09-24T06:42:19,42.805,6.029,CST-1368DR,7900,11064,15381,0.061,551
2019-09-24T06:45:21,42.805,6.029,CST-1368DR,7900,11062,15378,0.061,551
2019-09-24T06:48:23,42.805,6.029,CST-1368DR,7900,11062,15378,0.061,551
2019-09-24T06:51:24,42.805,6.029,CST-1368DR,7900,11064,15381,0.061,551
2019-09-24T06:54:26,42.805,6.029,CST-1368DR,7900,11064,15381,0.061,551
2019-09-24T06:57:28,42.805,6.029,CST-1368DR,7900,11064,15380,0.061,551
2019-09-24T07:00:29,42.805,6.029,CST-1368DR,7900,11062,15378,0.061,550
2019-09-24T07:03:31,42.805,6.029,CST-1368DR,7900,11063,15380,0.061,551
2019-09-24T07:06:32,42.805,6.029,CST-1368DR,7900,11064,15381,0.061,551
2019-09-24T07:09:34,42.805,6.029,CST-1368DR,7900,11064,15381,0.061,551
2019-09-24T07:12:36,42.805,6.029,CST-1368DR,7900,11061,15377,0.062,551
2019-09-24T07:15:38,42.805,6.029,CST-1368DR,7900,11063,15380,0.061,551
2019-09-24T07:18:39,42.805,6.029,CST-1368DR,7900,11063,15380,0.061,551
2019-09-24T07:21:41,42.805,6.029,CST-1368DR,7900,11062,15378,0.061,551
2019-09-24T07:24:43,42.805,6.029,CST-1368DR,7900,11063,15379,0.061,550
2019-09-24T07:27:44,42.805,6.029,CST-1368DR,7900,11064,15381,0.061,550
2019-09-24T07:30:46,42.805,6.029,CST-1368DR,7900,11065,15382,0.060,551
2019-09-24T07:33:47,42.805,6.029,CST-1368DR,7900,11063,15379,0.061,551
2019-09-24T07:36:49,42.805,6.029,CST-1368DR,7900,11063,15379,0.061,551
2019-09-24T07:39:51,42.805,6.029,CST-1368DR,7900,11059,15374,0.062,551
2019-09-24T07:42:53,42.805,6.029,CST-1368DR,7900,11060,15375,0.062,551
2019-09-24T07:45:54,42.805,6.029,CST-1368DR,7900,11062,15377,0.062,551
2019-09-24T07:48:56,42.805,6.029,CST-1368DR,7900,11057,15371,0.063,551
2019-09-24T07:51:58,42.805,6.029,CST-1368DR,7900,11061,15377,0.062,550
2019-09-24T07:54:59,42.805,6.029,CST-1368DR,7900,11063,15379,0.061,551
2019-09-24T07:58:01,42.805,6.029,CST-1368DR,7900,11064,15381,0.061,551
2019-09-24T08:01:03,42.805,6.029,CST-1368DR,7900,11061,15376,0.062,551
2019-09-24T08:04:04,42.805,6.029,CST-1368DR,7900,11063,15379,0.061,551
2019-09-24T08:07:06,42.805,6.029,CST-1368DR,7900,11062,15378,0.061,551
2019-09-24T08:10:07,42.805,6.029,CST-1368DR,7900,11061,15377,0.062,551
2019-09-24T08:13:09,42.805,6.029,CST-1368DR,7900,11061,15377,0.062,551
2019-09-24T08:16:11,42.805,6.029,CST-1368DR,7900,11061,15377,0.062,551
2019-09-24T08:19:12,42.805,6.029,CST-1368DR,7900,11063,15379,0.061,551
2019-09-24T08:22:14,42.805,6.029,CST-1368DR,7900,11063,15379,0.061,551
2019-09-24T08:25:16,42.805,6.029,CST-1368DR,7900,11062,15377,0.062,551
2019-09-24T08:28:17,42.805,6.029,CST-1368DR,7900,11060,15376,0.062,551
2019-09-24T08:31:19,42.805,6.029,CST-1368DR,7900,11063,15380,0.061,551
2019-09-24T08:34:20,42.805,6.029,CST-1368DR,7900,11062,15378,0.061,551
2019-09-24T08:37:22,42.805,6.029,CST-1368DR,7900,11063,15379,0.061,551
2019-09-24T08:40:24,42.805,6.029,CST-1368DR,7900,11063,15380,0.061,551
2019-09-24T08:43:25,42.805,6.029,CST-1368DR,7900,11063,15379,0.061,551
2019-09-24T08:46:27,42.805,6.029,CST-1368DR,7899,11062,15379,0.061,551
2019-09-24T08:49:29,42.805,6.029,CST-1368DR,7899,11060,15376,0.062,551
2019-09-24T08:52:30,42.805,6.029,CST-1368DR,7899,11062,15380,0.061,551
2019-09-24T08:55:32,42.805,6.029,CST-1368DR,7899,11062,15380,0.061,551
2019-09-24T08:58:34,42.805,6.029,CST-1368DR,7899,11061,15378,0.061,551
2019-09-24T09:01:35,42.805,6.029,CST-1368DR,7899,11062,15380,0.061,550
2019-09-24T09:04:37,42.805,6.029,CST-1368DR,7899,11060,15377,0.062,551
2019-09-24T09:07:38,42.805,6.029,CST-1368DR,7899,11063,15381,0.061,551
2019-09-24T09:10:40,42.805,6.029,CST-1368DR,7899,11062,15380,0.061,551
2019-09-24T09:13:42,42.805,6.029,CST-1368DR,7899,11061,15379,0.061,551
2019-09-24T09:16:43,42.805,6.029,CST-1368DR,7899,11062,15380,0.061,551
2019-09-24T09:19:45,42.805,6.029,CST-1368DR,7899,11060,15377,0.062,551
2019-09-24T09:22:47,42.805,6.029,CST-1368DR,7899,11063,15381,0.061,551
2019-09-24T09:25:48,42.805,6.029,CST-1368DR,7899,11062,15379,0.061,551
2019-09-24T09:28:50,42.805,6.029,CST-1368DR,7899,11062,15379,0.061,550
2019-09-24T09:31:52,42.805,6.029,CST-1368DR,7899,11063,15382,0.060,551
2019-09-24T09:34:53,42.805,6.029,CST-1368DR,7899,11060,15377,0.062,551
2019-09-24T09:37:55,42.805,6.029,CST-1368DR,7899,11062,15380,0.061,551
2019-09-24T09:40:57,42.805,6.029,CST-1368DR,7899,11061,15378,0.061,551
2019-09-24T09:43:58,42.805,6.029,CST-1368DR,7899,11062,15379,0.061,551
2019-09-24T09:47:00,42.805,6.029,CST-1368DR,7899,11060,15377,0.062,551
2019-09-24T09:50:01,42.805,6.029,CST-1368DR,7899,11062,15380,0.061,551
2019-09-24T09:53:03,42.805,6.029,CST-1368DR,7899,11062,15380,0.061,551
2019-09-24T09:56:05,42.805,6.029,CST-1368DR,7899,11062,15380,0.061,551
2019-09-24T09:59:06,42.805,6.029,CST-1368DR,7899,11062,15380,0.061,551
2019-09-24T10:02:08,42.805,6.029,CST-1368DR,7899,11062,15379,0.061,551
2019-09-24T10:05:10,42.805,6.029,CST-1368DR,7899,11062,15379,0.061,551
2019-09-24T10:08:11,42.805,6.029,CST-1368DR,7899,11061,15379,0.061,550
2019-09-24T10:11:13,42.805,6.029,CST-1368DR,7899,11060,15377,0.062,551
2019-09-24T10:14:15,42.805,6.029,CST-1368DR,7899,11061,15379,0.061,551
2019-09-24T10:17:16,42.805,6.029,CST-1368DR,7899,11061,15378,0.061,551
2019-09-24T10:20:18,42.805,6.029,CST-1368DR,7899,11061,15378,0.061,551
2019-09-24T10:23:19,42.805,6.029,CST-1368DR,7899,11060,15377,0.062,551
2019-09-24T10:26:21,42.805,6.029,CST-1368DR,7899,11059,15376,0.062,551
2019-09-24T10:29:23,42.805,6.029,CST-1368DR,7898,11057,15375,0.062,551
2019-09-24T10:32:24,42.805,6.029,CST-1368DR,7898,11059,15377,0.062,551
2019-09-24T10:35:26,42.805,6.029,CST-1368DR,7898,11059,15377,0.062,551
2019-09-24T10:38:28,42.805,6.029,CST-1368DR,7898,11059,15377,0.062,551
2019-09-24T10:41:29,42.805,6.029,CST-1368DR,7898,11061,15380,0.061,551
2019-09-24T10:44:31,42.805,6.029,CST-1368DR,7898,11061,15380,0.061,551
2019-09-24T10:47:33,42.805,6.029,CST-1368DR,7898,11061,15380,0.061,551
2019-09-24T10:50:34,42.805,6.029,CST-1368DR,7898,11059,15378,0.061,551
2019-09-24T10:53:36,42.805,6.029,CST-1368DR,7898,11059,15377,0.062,551
2019-09-24T10:56:38,42.805,6.029,CST-1368DR,7898,11055,15372,0.063,551
2019-09-24T10:59:40,42.805,6.029,CST-1368DR,7898,11051,15366,0.065,551
2019-09-24T11:02:41,42.805,6.029,CST-1368DR,7898,11059,15377,0.062,551
2019-09-24T11:05:43,42.805,6.029,CST-1368DR,7898,11060,15379,0.061,551
2019-09-24T11:08:45,42.805,6.029,CST-1368DR,7898,11059,15377,0.062,551
2019-09-24T11:11:46,42.805,6.029,CST-1368DR,7898,11060,15379,0.061,551
2019-09-24T11:14:48,42.805,6.029,CST-1368DR,7898,11060,15379,0.061,551
2019-09-24T11:17:49,42.805,6.029,CST-1368DR,7898,11059,15377,0.062,550
2019-09-24T11:20:51,42.805,6.029,CST-1368DR,7898,11058,15376,0.062,550
2019-09-24T11:23:53,42.805,6.029,CST-1368DR,7898,11059,15378,0.061,551
2019-09-24T11:30:07,42.805,6.029,CST-1368DR,7898,11059,15377,0.062,551
2019-09-24T11:33:09,42.805,6.029,CST-1368DR,7898,11058,15375,0.062,551
2019-09-24T11:50:07,42.805,6.029,CST-1368DR,7898,11058,15375,0.062,551
2019-09-24T11:53:08,42.805,6.029,CST-1368DR,7898,11059,15377,0.062,551
2019-09-24T11:56:10,42.805,6.029,CST-1368DR,7898,11059,15377,0.062,551
2019-09-24T11:59:11,42.805,6.029,CST-1368DR,7898,11058,15376,0.062,551
2019-09-24T12:02:13,42.805,6.029,CST-1368DR,7898,11057,15375,0.062,551
2019-09-24T12:05:15,42.805,6.029,CST-1368DR,7898,11058,15376,0.062,551
2019-09-24T12:08:16,42.805,6.029,CST-1368DR,7898,11058,15376,0.062,551
2019-09-24T12:11:18,42.805,6.029,CST-1368DR,7898,11057,15374,0.062,551
2019-09-24T12:14:20,42.805,6.029,CST-1368DR,7898,11058,15376,0.062,551
2019-09-24T12:17:21,42.805,6.029,CST-1368DR,7898,11058,15376,0.062,551
2019-09-24T12:20:23,42.805,6.029,CST-1368DR,7898,11055,15372,0.063,551
2019-09-24T12:23:24,42.805,6.029,CST-1368DR,7898,11056,15373,0.063,551
2019-09-24T12:26:26,42.805,6.029,CST-1368DR,7898,11058,15376,0.062,551
2019-09-24T12:29:28,42.805,6.029,CST-1368DR,7898,11059,15377,0.062,551
2019-09-24T12:32:29,42.805,6.029,CST-1368DR,7898,11056,15374,0.062,551
2019-09-24T12:35:31,42.805,6.029,CST-1368DR,7898,11054,15371,0.063,551
2019-09-24T12:38:33,42.805,6.029,CST-1368DR,7898,11058,15376,0.062,551
2019-09-24T12:41:34,42.805,6.029,CST-1368DR,7898,11058,15375,0.062,550
2019-09-24T12:44:36,42.805,6.029,CST-1368DR,7897,11057,15377,0.062,551
2019-09-24T12:47:38,42.805,6.029,CST-1368DR,7897,11056,15375,0.062,551
2019-09-24T12:50:39,42.805,6.029,CST-1368DR,7897,11056,15375,0.062,551
2019-09-24T12:53:41,42.805,6.029,CST-1368DR,7897,11057,15376,0.062,551
2019-09-24T12:56:42,42.805,6.029,CST-1368DR,7897,11056,15374,0.062,551
2019-09-24T12:59:44,42.805,6.029,CST-1368DR,7897,11056,15375,0.062,551
2019-09-24T13:02:46,42.805,6.029,CST-1368DR,7897,11056,15375,0.062,550
2019-09-24T13:05:47,42.805,6.029,CST-1368DR,7897,11057,15376,0.062,551
2019-09-24T13:08:49,42.805,6.029,CST-1368DR,7897,11056,15375,0.062,551
2019-09-24T13:11:51,42.805,6.029,CST-1368DR,7897,11057,15377,0.062,551
2019-09-24T13:14:52,42.805,6.029,CST-1368DR,7897,11055,15373,0.063,551
2019-09-24T13:17:54,42.805,6.029,CST-1368DR,7897,11056,15375,0.062,551
2019-09-24T13:20:56,42.805,6.029,CST-1368DR,7897,11057,15376,0.062,551
2019-09-24T13:23:57,42.805,6.029,CST-1368DR,7897,11057,15376,0.062,551
2019-09-24T13:26:59,42.805,6.029,CST-1368DR,7897,11052,15370,0.064,551
2019-09-24T13:30:01,42.805,6.029,CST-1368DR,7897,11056,15374,0.062,550
2019-09-24T13:33:02,42.805,6.029,CST-1368DR,7897,11055,15374,0.062,551
2019-09-24T13:36:04,42.805,6.029,CST-1368DR,7897,11056,15374,0.062,551
2019-09-24T13:39:05,42.805,6.029,CST-1368DR,7897,11055,15374,0.062,551
2019-09-24T13:42:07,42.805,6.029,CST-1368DR,7897,11057,15376,0.062,551
2019-09-24T13:45:09,42.805,6.029,CST-1368DR,7897,11056,15375,0.062,551
2019-09-24T13:48:10,42.805,6.029,CST-1368DR,7897,11055,15374,0.062,550
2019-09-24T13:51:12,42.805,6.029,CST-1368DR,7897,11057,15377,0.062,551
2019-09-24T13:54:14,42.805,6.029,CST-1368DR,7897,11057,15376,0.062,551
2019-09-24T13:57:15,42.805,6.029,CST-1368DR,7897,11055,15373,0.063,551
2019-09-24T14:00:17,42.805,6.029,CST-1368DR,7897,11055,15373,0.063,551
2019-09-24T14:03:19,42.805,6.029,CST-1368DR,7897,11056,15375,0.062,551
2019-09-24T14:06:20,42.805,6.029,CST-1368DR,7897,11056,15375,0.062,551
2019-09-24T14:09:22,42.805,6.029,CST-1368DR,7897,11056,15374,0.062,551
2019-09-24T14:12:23,42.805,6.029,CST-1368DR,7896,11055,15375,0.062,551
2019-09-24T14:15:25,42.805,6.029,CST-1368DR,7896,11057,15378,0.061,551
2019-09-24T14:18:27,42.805,6.029,CST-1368DR,7897,11055,15374,0.062,551
2019-09-24T14:21:28,42.805,6.029,CST-1368DR,7896,11057,15378,0.061,551
2019-09-24T14:24:30,42.805,6.029,CST-1368DR,7896,11052,15372,0.063,551
2019-09-24T14:27:32,42.805,6.029,CST-1368DR,7896,11055,15376,0.062,551
2019-09-24T14:30:33,42.805,6.029,CST-1368DR,7896,11042,15357,0.067,550
2019-09-24T14:33:35,42.805,6.029,CST-1368DR,7896,11054,15374,0.062,551
2019-09-24T14:36:36,42.805,6.029,CST-1368DR,7896,11055,15376,0.062,550
2019-09-24T14:39:38,42.805,6.029,CST-1368DR,7896,11056,15377,0.062,551
2019-09-24T14:42:40,42.805,6.029,CST-1368DR,7896,11054,15375,0.062,551
2019-09-24T14:45:41,42.805,6.029,CST-1368DR,7896,11057,15378,0.061,551
2019-09-24T14:48:43,42.805,6.029,CST-1368DR,7896,11055,15375,0.062,551
2019-09-24T14:51:45,42.805,6.029,CST-1368DR,7896,11057,15378,0.061,551
2019-09-24T14:54:46,42.805,6.029,CST-1368DR,7896,11054,15374,0.062,551
2019-09-24T14:57:48,42.805,6.029,CST-1368DR,7896,11054,15373,0.063,551
2019-09-24T15:00:49,42.805,6.029,CST-1368DR,7896,11056,15377,0.062,551
2019-09-24T15:03:51,42.805,6.029,CST-1368DR,7896,11056,15376,0.062,551
2019-09-24T15:06:53,42.805,6.029,CST-1368DR,7896,11053,15372,0.063,551
2019-09-24T15:09:54,42.805,6.029,CST-1368DR,7896,11056,15377,0.062,551
2019-09-24T15:12:56,42.805,6.029,CST-1368DR,7896,11055,15375,0.062,551
2019-09-24T15:15:58,42.805,6.029,CST-1368DR,7896,11055,15376,0.062,551
2019-09-24T15:18:59,42.805,6.029,CST-1368DR,7896,11037,15350,0.069,551
2019-09-24T15:22:01,42.805,6.029,CST-1368DR,7896,11056,15377,0.062,551
2019-09-24T15:25:02,42.805,6.029,CST-1368DR,7896,11054,15375,0.062,551
2019-09-24T15:28:04,42.805,6.029,CST-1368DR,7896,11054,15374,0.062,551
2019-09-24T15:31:06,42.805,6.029,CST-1368DR,7896,11054,15374,0.062,551
2019-09-24T15:34:07,42.805,6.029,CST-1368DR,7896,11051,15370,0.064,550
2019-09-24T15:37:09,42.805,6.029,CST-1368DR,7896,11054,15373,0.063,550
2019-09-24T15:40:11,42.805,6.029,CST-1368DR,7895,11055,15377,0.062,551
2019-09-24T15:43:12,42.805,6.029,CST-1368DR,7896,11055,15376,0.062,551
2019-09-24T15:46:14,42.805,6.029,CST-1368DR,7895,11055,15377,0.062,551
2019-09-24T15:49:15,42.805,6.029,CST-1368DR,7895,11054,15375,0.062,551
2019-09-24T15:52:17,42.805,6.029,CST-1368DR,7895,11054,15376,0.062,551
2019-09-24T15:55:19,42.805,6.029,CST-1368DR,7895,11054,15376,0.062,551
2019-09-24T15:58:20,42.805,6.029,CST-1368DR,7895,11054,15376,0.062,551
2019-09-24T16:01:22,42.805,6.029,CST-1368DR,7895,11052,15372,0.063,551
2019-09-24T16:04:24,42.805,6.029,CST-1368DR,7895,11051,15372,0.063,551
2019-09-24T16:07:25,42.805,6.029,CST-1368DR,7895,11054,15376,0.062,551
2019-09-24T16:10:27,42.805,6.029,CST-1368DR,7895,11054,15376,0.062,551
2019-09-24T16:13:29,42.805,6.029,CST-1368DR,7895,11055,15377,0.062,551
2019-09-24T16:16:30,42.805,6.029,CST-1368DR,7895,11053,15375,0.062,551
2019-09-24T16:19:32,42.805,6.029,CST-1368DR,7895,11055,15377,0.062,551
2019-09-24T16:22:33,42.805,6.029,CST-1368DR,7895,11054,15376,0.062,551
2019-09-24T16:25:35,42.805,6.029,CST-1368DR,7895,11052,15373,0.063,551
2019-09-24T16:28:37,42.805,6.029,CST-1368DR,7895,11051,15371,0.063,551
2019-09-24T16:31:38,42.805,6.029,CST-1368DR,7895,11048,15368,0.064,551
2019-09-24T16:34:40,42.805,6.029,CST-1368DR,7895,11049,15369,0.064,551
2019-09-24T16:37:42,42.805,6.029,CST-1368DR,7895,11055,15377,0.062,551
2019-09-24T16:40:43,42.805,6.029,CST-1368DR,7895,11054,15376,0.062,551
2019-09-24T16:43:45,42.805,6.029,CST-1368DR,7895,11054,15376,0.062,551
2019-09-24T16:46:47,42.805,6.029,CST-1368DR,7895,11055,15378,0.061,551
2019-09-24T16:49:48,42.805,6.029,CST-1368DR,7895,11045,15363,0.065,551
2019-09-24T16:52:50,42.805,6.029,CST-1368DR,7895,11055,15377,0.062,551
2019-09-24T16:55:51,42.805,6.029,CST-1368DR,7895,11054,15376,0.062,550